M I D A S
Marine Information and Data Acquisition System
Tripno 1631 of the Zeeleeuw from 2009-01-21 08:17:31 to 2009-01-22 11:52:43
Back to CruiseResearch ActivitiesStationsMapUnderway DataData graphs

EquipmentUnitsComments
TimeDGPSUTC
LatitudeDGPSDM.mWGS84
LongitudeDGPSDM.mWGS84
SpeedMeteo Stationm/sRelative wind speed
DirectionMeteo StationdegRelative wind direction
TemperatureMeteo Stationdeg CelciusAir temperature
PressureMeteo StationPaAtmospheric pressure
HumidityMeteo Station%Relative humidity
Missing or incorrect values are displayed as -999
Metereological data collected by the RV Zeeleeuw from 2009-01-21 08:19:09 to 2009-01-22 12:03:35
                                                                                    Next 1000 lines
Time Latitude Longitude Speed Direction Temperature Pressure Humidity
2009-01-21 08:19:19 51°13.663 2°55.956 -999 -999 -999 -999 -999
2009-01-21 08:19:24 51°13.664 2°55.955 -999 -999 -999 -999 -999
2009-01-21 08:19:29 51°13.665 2°55.953 -999 -999 -999 -999 -999
2009-01-21 08:19:34 51°13.666 2°55.95 -999 -999 -999 -999 -999
2009-01-21 08:19:39 51°13.667 2°55.948 -999 -999 -999 -999 -999
2009-01-21 08:19:44 51°13.668 2°55.945 -999 -999 -999 -999 -999
2009-01-21 08:19:49 51°13.669 2°55.941 -999 -999 -999 -999 -999
2009-01-21 08:19:54 51°13.67 2°55.938 -999 -999 -999 -999 -999
2009-01-21 08:19:59 51°13.672 2°55.935 -999 -999 -999 -999 -999
2009-01-21 08:20:04 51°13.673 2°55.931 -999 -999 -999 -999 -999
2009-01-21 08:20:09 51°13.674 2°55.927 -999 -999 -999 -999 -999
2009-01-21 08:20:14 51°13.676 2°55.922 -999 -999 -999 -999 -999
2009-01-21 08:20:19 51°13.677 2°55.918 -999 -999 -999 -999 -999
2009-01-21 08:20:24 51°13.678 2°55.913 -999 -999 -999 -999 -999
2009-01-21 08:20:29 51°13.68 2°55.908 -999 -999 -999 -999 -999
2009-01-21 08:20:34 51°13.681 2°55.903 -999 -999 -999 -999 -999
2009-01-21 08:20:39 51°13.682 2°55.898 -999 -999 -999 -999 -999
2009-01-21 08:20:44 51°13.683 2°55.893 -999 -999 -999 -999 -999
2009-01-21 08:20:49 51°13.684 2°55.887 -999 -999 -999 -999 -999
2009-01-21 08:20:54 51°13.685 2°55.882 -999 -999 -999 -999 -999
2009-01-21 08:20:59 51°13.686 2°55.876 -999 -999 -999 -999 -999
2009-01-21 08:21:04 51°13.687 2°55.87 -999 -999 -999 -999 -999
2009-01-21 08:21:10 51°13.688 2°55.863 -999 -999 -999 -999 -999
2009-01-21 08:21:14 51°13.689 2°55.858 -999 -999 -999 -999 -999
2009-01-21 08:21:19 51°13.689 2°55.853 -999 -999 -999 -999 -999
2009-01-21 08:21:24 51°13.69 2°55.847 -999 -999 -999 -999 -999
2009-01-21 08:21:30 51°13.691 2°55.84 -999 -999 -999 -999 -999
2009-01-21 08:21:34 51°13.692 2°55.835 -999 -999 -999 -999 -999
2009-01-21 08:21:39 51°13.692 2°55.829 -999 -999 -999 -999 -999
2009-01-21 08:21:44 51°13.693 2°55.823 -999 -999 -999 -999 -999
2009-01-21 08:21:49 51°13.693 2°55.816 -999 -999 -999 -999 -999
2009-01-21 08:21:55 51°13.694 2°55.809 -999 -999 -999 -999 -999
2009-01-21 08:21:59 51°13.694 2°55.804 -999 -999 -999 -999 -999
2009-01-21 08:22:04 51°13.694 2°55.799 -999 -999 -999 -999 -999
2009-01-21 08:22:09 51°13.694 2°55.793 -999 -999 -999 -999 -999
2009-01-21 08:22:14 51°13.695 2°55.787 -999 -999 -999 -999 -999
2009-01-21 08:22:19 51°13.695 2°55.782 -999 -999 -999 -999 -999
2009-01-21 08:22:24 51°13.695 2°55.777 -999 -999 -999 -999 -999
2009-01-21 08:22:29 51°13.695 2°55.772 -999 -999 -999 -999 -999
2009-01-21 08:22:34 51°13.695 2°55.768 -999 -999 -999 -999 -999
2009-01-21 08:22:39 51°13.695 2°55.765 -999 -999 -999 -999 -999
2009-01-21 08:22:44 51°13.695 2°55.764 -999 -999 -999 -999 -999
2009-01-21 08:22:49 51°13.696 2°55.763 -999 -999 -999 -999 -999
2009-01-21 08:22:54 51°13.697 2°55.764 -999 -999 -999 -999 -999
2009-01-21 08:22:59 51°13.698 2°55.764 -999 -999 -999 -999 -999
2009-01-21 08:23:04 51°13.699 2°55.766 -999 -999 -999 -999 -999
2009-01-21 08:23:09 51°13.701 2°55.767 -999 -999 -999 -999 -999
2009-01-21 08:23:14 51°13.702 2°55.768 -999 -999 -999 -999 -999
2009-01-21 08:23:19 51°13.704 2°55.769 -999 -999 -999 -999 -999
2009-01-21 08:23:24 51°13.707 2°55.77 -999 -999 -999 -999 -999
2009-01-21 08:23:29 51°13.708 2°55.77 -999 -999 -999 -999 -999
2009-01-21 08:23:34 51°13.709 2°55.771 -999 -999 -999 -999 -999
2009-01-21 08:23:39 51°13.71 2°55.771 -999 -999 -999 -999 -999
2009-01-21 08:23:44 51°13.71 2°55.77 -999 -999 -999 -999 -999
2009-01-21 08:23:49 51°13.71 2°55.77 -999 -999 -999 -999 -999
2009-01-21 08:23:54 51°13.71 2°55.77 -999 -999 -999 -999 -999
2009-01-21 08:23:59 51°13.71 2°55.769 -999 -999 -999 -999 -999
2009-01-21 08:24:04 51°13.711 2°55.769 -999 -999 -999 -999 -999
2009-01-21 08:24:09 51°13.713 2°55.769 -999 -999 -999 -999 -999
2009-01-21 08:24:14 51°13.716 2°55.767 -999 -999 -999 -999 -999
2009-01-21 08:24:19 51°13.719 2°55.765 -999 -999 -999 -999 -999
2009-01-21 08:24:24 51°13.722 2°55.763 -999 -999 -999 -999 -999
2009-01-21 08:24:29 51°13.725 2°55.759 -999 -999 -999 -999 -999
2009-01-21 08:24:34 51°13.729 2°55.755 -999 -999 -999 -999 -999
2009-01-21 08:24:39 51°13.733 2°55.749 -999 -999 -999 -999 -999
2009-01-21 08:24:44 51°13.738 2°55.743 -999 -999 -999 -999 -999
2009-01-21 08:24:49 51°13.742 2°55.736 -999 -999 -999 -999 -999
2009-01-21 08:24:54 51°13.748 2°55.729 -999 -999 -999 -999 -999
2009-01-21 08:24:59 51°13.753 2°55.721 -999 -999 -999 -999 -999
2009-01-21 08:25:04 51°13.759 2°55.713 -999 -999 -999 -999 -999
2009-01-21 08:25:09 51°13.765 2°55.704 -999 -999 -999 -999 -999
2009-01-21 08:25:14 51°13.771 2°55.695 -999 -999 -999 -999 -999
2009-01-21 08:25:19 51°13.777 2°55.686 -999 -999 -999 -999 -999
2009-01-21 08:25:24 51°13.784 2°55.677 -999 -999 -999 -999 -999
2009-01-21 08:25:29 51°13.791 2°55.669 -999 -999 -999 -999 -999
2009-01-21 08:25:34 51°13.799 2°55.661 -999 -999 -999 -999 -999
2009-01-21 08:25:39 51°13.806 2°55.653 -999 -999 -999 -999 -999
2009-01-21 08:25:44 51°13.814 2°55.646 -999 -999 -999 -999 -999
2009-01-21 08:25:49 51°13.822 2°55.64 -999 -999 -999 -999 -999
2009-01-21 08:25:54 51°13.83 2°55.634 -999 -999 -999 -999 -999
2009-01-21 08:25:59 51°13.838 2°55.628 -999 -999 -999 -999 -999
2009-01-21 08:26:04 51°13.846 2°55.622 -999 -999 -999 -999 -999
2009-01-21 08:26:09 51°13.854 2°55.616 -999 -999 -999 -999 -999
2009-01-21 08:26:14 51°13.863 2°55.609 -999 -999 -999 -999 -999
2009-01-21 08:26:19 51°13.871 2°55.603 -999 -999 -999 -999 -999
2009-01-21 08:26:24 51°13.88 2°55.596 -999 -999 -999 -999 -999
2009-01-21 08:26:29 51°13.888 2°55.59 -999 -999 -999 -999 -999
2009-01-21 08:26:34 51°13.897 2°55.583 -999 -999 -999 -999 -999
2009-01-21 08:26:39 51°13.906 2°55.577 -999 -999 -999 -999 -999
2009-01-21 08:26:44 51°13.915 2°55.571 -999 -999 -999 -999 -999
2009-01-21 08:26:49 51°13.924 2°55.565 -999 -999 -999 -999 -999
2009-01-21 08:26:54 51°13.934 2°55.559 -999 -999 -999 -999 -999
2009-01-21 08:26:59 51°13.943 2°55.553 -999 -999 -999 -999 -999
2009-01-21 08:27:04 51°13.952 2°55.547 -999 -999 -999 -999 -999
2009-01-21 08:27:09 51°13.961 2°55.541 -999 -999 -999 -999 -999
2009-01-21 08:27:14 51°13.97 2°55.534 -999 -999 -999 -999 -999
2009-01-21 08:27:19 51°13.979 2°55.528 -999 -999 -999 -999 -999
2009-01-21 08:27:24 51°13.989 2°55.521 -999 -999 -999 -999 -999
2009-01-21 08:27:29 51°13.998 2°55.515 -999 -999 -999 -999 -999
2009-01-21 08:27:34 51°14.007 2°55.509 -999 -999 -999 -999 -999
2009-01-21 08:27:39 51°14.016 2°55.502 -999 -999 -999 -999 -999
2009-01-21 08:27:44 51°14.026 2°55.496 -999 -999 -999 -999 -999
2009-01-21 08:27:49 51°14.035 2°55.49 -999 -999 -999 -999 -999
2009-01-21 08:27:54 51°14.045 2°55.484 -999 -999 -999 -999 -999
2009-01-21 08:27:59 51°14.054 2°55.478 -999 -999 -999 -999 -999
2009-01-21 08:28:04 51°14.064 2°55.471 -999 -999 -999 -999 -999
2009-01-21 08:28:09 51°14.073 2°55.464 -999 -999 -999 -999 -999
2009-01-21 08:28:14 51°14.082 2°55.456 -999 -999 -999 -999 -999
2009-01-21 08:28:19 51°14.091 2°55.449 -999 -999 -999 -999 -999
2009-01-21 08:28:24 51°14.1 2°55.441 -999 -999 -999 -999 -999
2009-01-21 08:28:29 51°14.11 2°55.433 -999 -999 -999 -999 -999
2009-01-21 08:28:34 51°14.119 2°55.425 -999 -999 -999 -999 -999
2009-01-21 08:28:39 51°14.129 2°55.416 -999 -999 -999 -999 -999
2009-01-21 08:28:44 51°14.138 2°55.408 -999 -999 -999 -999 -999
2009-01-21 08:28:49 51°14.147 2°55.399 -999 -999 -999 -999 -999
2009-01-21 08:28:54 51°14.157 2°55.389 -999 -999 -999 -999 -999
2009-01-21 08:28:59 51°14.166 2°55.379 -999 -999 -999 -999 -999
2009-01-21 08:29:04 51°14.175 2°55.369 -999 -999 -999 -999 -999
2009-01-21 08:29:09 51°14.185 2°55.359 -999 -999 -999 -999 -999
2009-01-21 08:29:14 51°14.194 2°55.349 -999 -999 -999 -999 -999
2009-01-21 08:29:19 51°14.204 2°55.338 -999 -999 -999 -999 -999
2009-01-21 08:29:24 51°14.214 2°55.327 -999 -999 -999 -999 -999
2009-01-21 08:29:29 51°14.223 2°55.316 -999 -999 -999 -999 -999
2009-01-21 08:29:34 51°14.233 2°55.304 -999 -999 -999 -999 -999
2009-01-21 08:29:39 51°14.242 2°55.292 -999 -999 -999 -999 -999
2009-01-21 08:29:44 51°14.251 2°55.279 -999 -999 -999 -999 -999
2009-01-21 08:29:49 51°14.26 2°55.266 -999 -999 -999 -999 -999
2009-01-21 08:29:54 51°14.268 2°55.252 -999 -999 -999 -999 -999
2009-01-21 08:29:59 51°14.277 2°55.237 -999 -999 -999 -999 -999
2009-01-21 08:30:04 51°14.285 2°55.222 -999 -999 -999 -999 -999
2009-01-21 08:30:09 51°14.293 2°55.207 -999 -999 -999 -999 -999
2009-01-21 08:30:14 51°14.301 2°55.191 -999 -999 -999 -999 -999
2009-01-21 08:30:19 51°14.308 2°55.175 -999 -999 -999 -999 -999
2009-01-21 08:30:24 51°14.315 2°55.158 -999 -999 -999 -999 -999
2009-01-21 08:30:29 51°14.322 2°55.141 -999 -999 -999 -999 -999
2009-01-21 08:30:34 51°14.329 2°55.124 -999 -999 -999 -999 -999
2009-01-21 08:30:39 51°14.336 2°55.106 -999 -999 -999 -999 -999
2009-01-21 08:30:44 51°14.343 2°55.089 -999 -999 -999 -999 -999
2009-01-21 08:30:49 51°14.35 2°55.071 -999 -999 -999 -999 -999
2009-01-21 08:30:54 51°14.357 2°55.054 -999 -999 -999 -999 -999
2009-01-21 08:30:59 51°14.364 2°55.037 -999 -999 -999 -999 -999
2009-01-21 08:31:04 51°14.372 2°55.02 -999 -999 -999 -999 -999
2009-01-21 08:31:09 51°14.38 2°55.004 -999 -999 -999 -999 -999
2009-01-21 08:31:14 51°14.388 2°54.988 -999 -999 -999 -999 -999
2009-01-21 08:31:19 51°14.397 2°54.972 -999 -999 -999 -999 -999
2009-01-21 08:31:24 51°14.406 2°54.957 -999 -999 -999 -999 -999
2009-01-21 08:31:29 51°14.416 2°54.942 -999 -999 -999 -999 -999
2009-01-21 08:31:34 51°14.425 2°54.926 -999 -999 -999 -999 -999
2009-01-21 08:31:39 51°14.434 2°54.911 -999 -999 -999 -999 -999
2009-01-21 08:31:44 51°14.444 2°54.895 -999 -999 -999 -999 -999
2009-01-21 08:31:49 51°14.453 2°54.879 -999 -999 -999 -999 -999
2009-01-21 08:31:54 51°14.462 2°54.863 -999 -999 -999 -999 -999
2009-01-21 08:31:59 51°14.471 2°54.846 -999 -999 -999 -999 -999
2009-01-21 08:32:04 51°14.479 2°54.829 -999 -999 -999 -999 -999
2009-01-21 08:32:09 51°14.488 2°54.811 -999 -999 -999 -999 -999
2009-01-21 08:32:14 51°14.496 2°54.794 -999 -999 -999 -999 -999
2009-01-21 08:32:19 51°14.505 2°54.776 -999 -999 -999 -999 -999
2009-01-21 08:32:24 51°14.513 2°54.758 -999 -999 -999 -999 -999
2009-01-21 08:32:29 51°14.52 2°54.739 -999 -999 -999 -999 -999
2009-01-21 08:32:34 51°14.526 2°54.719 -999 -999 -999 -999 -999
2009-01-21 08:32:39 51°14.532 2°54.699 -999 -999 -999 -999 -999
2009-01-21 08:32:44 51°14.538 2°54.679 -999 -999 -999 -999 -999
2009-01-21 08:32:49 51°14.542 2°54.657 -999 -999 -999 -999 -999
2009-01-21 08:32:54 51°14.546 2°54.635 -999 -999 -999 -999 -999
2009-01-21 08:32:59 51°14.549 2°54.612 -999 -999 -999 -999 -999
2009-01-21 08:33:04 51°14.552 2°54.589 -999 -999 -999 -999 -999
2009-01-21 08:33:09 51°14.554 2°54.566 -999 -999 -999 -999 -999
2009-01-21 08:33:14 51°14.555 2°54.542 -999 -999 -999 -999 -999
2009-01-21 08:33:19 51°14.556 2°54.518 -999 -999 -999 -999 -999
2009-01-21 08:33:24 51°14.555 2°54.494 -999 -999 -999 -999 -999
2009-01-21 08:33:29 51°14.554 2°54.47 -999 -999 -999 -999 -999
2009-01-21 08:33:34 51°14.552 2°54.446 -999 -999 -999 -999 -999
2009-01-21 08:33:39 51°14.55 2°54.422 -999 -999 -999 -999 -999
2009-01-21 08:33:44 51°14.547 2°54.398 -999 -999 -999 -999 -999
2009-01-21 08:33:49 51°14.545 2°54.373 -999 -999 -999 -999 -999
2009-01-21 08:33:54 51°14.543 2°54.349 -999 -999 -999 -999 -999
2009-01-21 08:33:59 51°14.54 2°54.324 -999 -999 -999 -999 -999
2009-01-21 08:34:04 51°14.538 2°54.3 -999 -999 -999 -999 -999
2009-01-21 08:34:09 51°14.535 2°54.276 -999 -999 -999 -999 -999
2009-01-21 08:34:14 51°14.532 2°54.252 -999 -999 -999 -999 -999
2009-01-21 08:34:19 51°14.529 2°54.228 -999 -999 -999 -999 -999
2009-01-21 08:34:24 51°14.525 2°54.205 -999 -999 -999 -999 -999
2009-01-21 08:34:29 51°14.52 2°54.181 -999 -999 -999 -999 -999
2009-01-21 08:34:34 51°14.516 2°54.158 -999 -999 -999 -999 -999
2009-01-21 08:34:39 51°14.512 2°54.134 -999 -999 -999 -999 -999
2009-01-21 08:34:44 51°14.508 2°54.11 -999 -999 -999 -999 -999
2009-01-21 08:34:49 51°14.505 2°54.086 -999 -999 -999 -999 -999
2009-01-21 08:34:54 51°14.503 2°54.062 -999 -999 -999 -999 -999
2009-01-21 08:34:59 51°14.5 2°54.038 -999 -999 -999 -999 -999
2009-01-21 08:35:04 51°14.496 2°54.014 -999 -999 -999 -999 -999
2009-01-21 08:35:09 51°14.492 2°53.991 -999 -999 -999 -999 -999
2009-01-21 08:35:14 51°14.486 2°53.97 -999 -999 -999 -999 -999
2009-01-21 08:35:19 51°14.479 2°53.949 -999 -999 -999 -999 -999
2009-01-21 08:35:24 51°14.471 2°53.93 -999 -999 -999 -999 -999
2009-01-21 08:35:29 51°14.461 2°53.912 -999 -999 -999 -999 -999
2009-01-21 08:35:34 51°14.452 2°53.895 -999 -999 -999 -999 -999
2009-01-21 08:35:39 51°14.441 2°53.878 -999 -999 -999 -999 -999
2009-01-21 08:35:44 51°14.43 2°53.863 -999 -999 -999 -999 -999
2009-01-21 08:35:49 51°14.418 2°53.848 -999 -999 -999 -999 -999
2009-01-21 08:35:55 51°14.404 2°53.831 -999 -999 -999 -999 -999
2009-01-21 08:35:59 51°14.394 2°53.82 -999 -999 -999 -999 -999
2009-01-21 08:36:04 51°14.383 2°53.805 -999 -999 -999 -999 -999
2009-01-21 08:36:09 51°14.371 2°53.789 -999 -999 -999 -999 -999
2009-01-21 08:36:14 51°14.36 2°53.773 -999 -999 -999 -999 -999
2009-01-21 08:36:19 51°14.349 2°53.757 -999 -999 -999 -999 -999
2009-01-21 08:36:24 51°14.338 2°53.741 -999 -999 -999 -999 -999
2009-01-21 08:36:29 51°14.327 2°53.724 -999 -999 -999 -999 -999
2009-01-21 08:36:34 51°14.316 2°53.708 -999 -999 -999 -999 -999
2009-01-21 08:36:39 51°14.305 2°53.692 -999 -999 -999 -999 -999
2009-01-21 08:36:44 51°14.294 2°53.676 -999 -999 -999 -999 -999
2009-01-21 08:36:49 51°14.283 2°53.66 -999 -999 -999 -999 -999
2009-01-21 08:36:54 51°14.272 2°53.643 -999 -999 -999 -999 -999
2009-01-21 08:36:59 51°14.261 2°53.627 -999 -999 -999 -999 -999
2009-01-21 08:37:04 51°14.25 2°53.611 -999 -999 -999 -999 -999
2009-01-21 08:37:09 51°14.239 2°53.595 -999 -999 -999 -999 -999
2009-01-21 08:37:14 51°14.228 2°53.579 -999 -999 -999 -999 -999
2009-01-21 08:37:19 51°14.217 2°53.564 -999 -999 -999 -999 -999
2009-01-21 08:37:24 51°14.206 2°53.548 -999 -999 -999 -999 -999
2009-01-21 08:37:29 51°14.195 2°53.532 -999 -999 -999 -999 -999
2009-01-21 08:37:34 51°14.183 2°53.516 -999 -999 -999 -999 -999
2009-01-21 08:37:39 51°14.172 2°53.5 -999 -999 -999 -999 -999
2009-01-21 08:37:44 51°14.162 2°53.483 -999 -999 -999 -999 -999
2009-01-21 08:37:49 51°14.152 2°53.465 -999 -999 -999 -999 -999
2009-01-21 08:37:54 51°14.144 2°53.446 -999 -999 -999 -999 -999
2009-01-21 08:37:59 51°14.136 2°53.427 -999 -999 -999 -999 -999
2009-01-21 08:38:04 51°14.128 2°53.406 -999 -999 -999 -999 -999
2009-01-21 08:38:09 51°14.122 2°53.385 -999 -999 -999 -999 -999
2009-01-21 08:38:14 51°14.116 2°53.363 -999 -999 -999 -999 -999
2009-01-21 08:38:19 51°14.11 2°53.342 -999 -999 -999 -999 -999
2009-01-21 08:38:24 51°14.103 2°53.321 -999 -999 -999 -999 -999
2009-01-21 08:38:29 51°14.095 2°53.301 -999 -999 -999 -999 -999
2009-01-21 08:38:34 51°14.087 2°53.281 -999 -999 -999 -999 -999
2009-01-21 08:38:39 51°14.079 2°53.261 -999 -999 -999 -999 -999
2009-01-21 08:38:44 51°14.07 2°53.242 -999 -999 -999 -999 -999
2009-01-21 08:38:49 51°14.061 2°53.222 -999 -999 -999 -999 -999
2009-01-21 08:38:54 51°14.053 2°53.202 -999 -999 -999 -999 -999
2009-01-21 08:38:59 51°14.045 2°53.182 -999 -999 -999 -999 -999
2009-01-21 08:39:04 51°14.037 2°53.161 -999 -999 -999 -999 -999
2009-01-21 08:39:09 51°14.03 2°53.14 -999 -999 -999 -999 -999
2009-01-21 08:39:14 51°14.024 2°53.118 -999 -999 -999 -999 -999
2009-01-21 08:39:19 51°14.018 2°53.096 -999 -999 -999 -999 -999
2009-01-21 08:39:24 51°14.012 2°53.074 -999 -999 -999 -999 -999
2009-01-21 08:39:29 51°14.007 2°53.051 -999 -999 -999 -999 -999
2009-01-21 08:39:34 51°14.001 2°53.028 -999 -999 -999 -999 -999
2009-01-21 08:39:39 51°13.996 2°53.006 -999 -999 -999 -999 -999
2009-01-21 08:39:44 51°13.991 2°52.983 -999 -999 -999 -999 -999
2009-01-21 08:39:49 51°13.986 2°52.96 -999 -999 -999 -999 -999
2009-01-21 08:39:54 51°13.981 2°52.937 -999 -999 -999 -999 -999
2009-01-21 08:39:59 51°13.977 2°52.913 -999 -999 -999 -999 -999
2009-01-21 08:40:04 51°13.973 2°52.89 -999 -999 -999 -999 -999
2009-01-21 08:40:09 51°13.969 2°52.867 -999 -999 -999 -999 -999
2009-01-21 08:40:15 51°13.963 2°52.839 -999 -999 -999 -999 -999
2009-01-21 08:40:19 51°13.959 2°52.821 -999 -999 -999 -999 -999
2009-01-21 08:40:24 51°13.954 2°52.798 -999 -999 -999 -999 -999
2009-01-21 08:40:29 51°13.948 2°52.776 -999 -999 -999 -999 -999
2009-01-21 08:40:34 51°13.941 2°52.755 -999 -999 -999 -999 -999
2009-01-21 08:40:39 51°13.934 2°52.734 -999 -999 -999 -999 -999
2009-01-21 08:40:44 51°13.926 2°52.713 -999 -999 -999 -999 -999
2009-01-21 08:40:49 51°13.918 2°52.693 -999 -999 -999 -999 -999
2009-01-21 08:40:54 51°13.911 2°52.672 -999 -999 -999 -999 -999
2009-01-21 08:40:59 51°13.903 2°52.653 -999 -999 -999 -999 -999
2009-01-21 08:41:04 51°13.897 2°52.635 -999 -999 -999 -999 -999
2009-01-21 08:41:09 51°13.891 2°52.619 -999 -999 -999 -999 -999
2009-01-21 08:41:14 51°13.887 2°52.604 -999 -999 -999 -999 -999
2009-01-21 08:41:19 51°13.883 2°52.59 -999 -999 -999 -999 -999
2009-01-21 08:41:24 51°13.88 2°52.578 -999 -999 -999 -999 -999
2009-01-21 08:41:29 51°13.877 2°52.566 -999 -999 -999 -999 -999
2009-01-21 08:41:34 51°13.874 2°52.556 -999 -999 -999 -999 -999
2009-01-21 08:41:39 51°13.87 2°52.547 -999 -999 -999 -999 -999
2009-01-21 08:41:44 51°13.867 2°52.54 -999 -999 -999 -999 -999
2009-01-21 08:41:49 51°13.864 2°52.533 -999 -999 -999 -999 -999
2009-01-21 08:41:54 51°13.861 2°52.527 -999 -999 -999 -999 -999
2009-01-21 08:41:59 51°13.858 2°52.522 -999 -999 -999 -999 -999
2009-01-21 08:42:04 51°13.856 2°52.517 -999 -999 -999 -999 -999
2009-01-21 08:42:09 51°13.853 2°52.512 -999 -999 -999 -999 -999
2009-01-21 08:42:14 51°13.851 2°52.508 -999 -999 -999 -999 -999
2009-01-21 08:42:19 51°13.849 2°52.505 -999 -999 -999 -999 -999
2009-01-21 08:42:24 51°13.847 2°52.502 -999 -999 -999 -999 -999
2009-01-21 08:42:29 51°13.844 2°52.499 -999 -999 -999 -999 -999
2009-01-21 08:42:35 51°13.842 2°52.495 -999 -999 -999 -999 -999
2009-01-21 08:42:39 51°13.839 2°52.494 -999 -999 -999 -999 -999
2009-01-21 08:42:44 51°13.837 2°52.492 -999 -999 -999 -999 -999
2009-01-21 08:42:49 51°13.835 2°52.491 -999 -999 -999 -999 -999
2009-01-21 08:42:54 51°13.832 2°52.49 -999 -999 -999 -999 -999
2009-01-21 08:42:59 51°13.83 2°52.489 -999 -999 -999 -999 -999
2009-01-21 08:43:04 51°13.828 2°52.489 -999 -999 -999 -999 -999
2009-01-21 08:43:09 51°13.826 2°52.489 -999 -999 -999 -999 -999
2009-01-21 08:43:14 51°13.824 2°52.489 -999 -999 -999 -999 -999
2009-01-21 08:43:19 51°13.823 2°52.489 -999 -999 -999 -999 -999
2009-01-21 08:43:24 51°13.821 2°52.49 -999 -999 -999 -999 -999
2009-01-21 08:43:29 51°13.82 2°52.491 -999 -999 -999 -999 -999
2009-01-21 08:43:34 51°13.818 2°52.492 -999 -999 -999 -999 -999
2009-01-21 08:43:39 51°13.817 2°52.493 -999 -999 -999 -999 -999
2009-01-21 08:43:44 51°13.815 2°52.494 -999 -999 -999 -999 -999
2009-01-21 08:43:49 51°13.814 2°52.495 -999 -999 -999 -999 -999
2009-01-21 08:43:54 51°13.813 2°52.496 -999 -999 -999 -999 -999
2009-01-21 08:43:59 51°13.812 2°52.498 -999 -999 -999 -999 -999
2009-01-21 08:44:04 51°13.811 2°52.499 -999 -999 -999 -999 -999
2009-01-21 08:44:09 51°13.81 2°52.501 -999 -999 -999 -999 -999
2009-01-21 08:44:14 51°13.809 2°52.503 -999 -999 -999 -999 -999
2009-01-21 08:44:19 51°13.808 2°52.505 -999 -999 -999 -999 -999
2009-01-21 08:44:24 51°13.807 2°52.506 -999 -999 -999 -999 -999
2009-01-21 08:44:29 51°13.806 2°52.508 -999 -999 -999 -999 -999
2009-01-21 08:44:35 51°13.806 2°52.511 -999 -999 -999 -999 -999
2009-01-21 08:44:39 51°13.805 2°52.512 -999 -999 -999 -999 -999
2009-01-21 08:44:44 51°13.804 2°52.515 -999 -999 -999 -999 -999
2009-01-21 08:44:49 51°13.804 2°52.517 -999 -999 -999 -999 -999
2009-01-21 08:44:54 51°13.803 2°52.519 -999 -999 -999 -999 -999
2009-01-21 08:44:59 51°13.802 2°52.522 -999 -999 -999 -999 -999
2009-01-21 08:45:04 51°13.801 2°52.524 -999 -999 -999 -999 -999
2009-01-21 08:45:09 51°13.801 2°52.527 -999 -999 -999 -999 -999
2009-01-21 08:45:14 51°13.8 2°52.529 -999 -999 -999 -999 -999
2009-01-21 08:45:19 51°13.799 2°52.532 -999 -999 -999 -999 -999
2009-01-21 08:45:24 51°13.798 2°52.534 -999 -999 -999 -999 -999
2009-01-21 08:45:29 51°13.797 2°52.537 -999 -999 -999 -999 -999
2009-01-21 08:45:34 51°13.796 2°52.54 -999 -999 -999 -999 -999
2009-01-21 08:45:39 51°13.794 2°52.542 -999 -999 -999 -999 -999
2009-01-21 08:45:44 51°13.792 2°52.545 -999 -999 -999 -999 -999
2009-01-21 08:45:49 51°13.79 2°52.547 -999 -999 -999 -999 -999
2009-01-21 08:45:54 51°13.787 2°52.549 -999 -999 -999 -999 -999
2009-01-21 08:45:59 51°13.784 2°52.55 -999 -999 -999 -999 -999
2009-01-21 08:46:04 51°13.781 2°52.551 -999 -999 -999 -999 -999
2009-01-21 08:46:09 51°13.778 2°52.552 -999 -999 -999 -999 -999
2009-01-21 08:46:14 51°13.776 2°52.552 -999 -999 -999 -999 -999
2009-01-21 08:46:19 51°13.773 2°52.551 -999 -999 -999 -999 -999
2009-01-21 08:46:24 51°13.77 2°52.551 -999 -999 -999 -999 -999
2009-01-21 08:46:29 51°13.768 2°52.551 -999 -999 -999 -999 -999
2009-01-21 08:46:34 51°13.766 2°52.55 -999 -999 -999 -999 -999
2009-01-21 08:46:39 51°13.763 2°52.549 -999 -999 -999 -999 -999
2009-01-21 08:46:44 51°13.761 2°52.548 -999 -999 -999 -999 -999
2009-01-21 08:46:49 51°13.758 2°52.547 -999 -999 -999 -999 -999
2009-01-21 08:46:54 51°13.756 2°52.545 -999 -999 -999 -999 -999
2009-01-21 08:46:59 51°13.753 2°52.543 -999 -999 -999 -999 -999
2009-01-21 08:47:04 51°13.75 2°52.541 -999 -999 -999 -999 -999
2009-01-21 08:47:09 51°13.747 2°52.539 -999 -999 -999 -999 -999
2009-01-21 08:47:14 51°13.744 2°52.536 -999 -999 -999 -999 -999
2009-01-21 08:47:19 51°13.74 2°52.533 -999 -999 -999 -999 -999
2009-01-21 08:47:24 51°13.737 2°52.531 -999 -999 -999 -999 -999
2009-01-21 08:47:29 51°13.733 2°52.527 -999 -999 -999 -999 -999
2009-01-21 08:47:34 51°13.73 2°52.524 -999 -999 -999 -999 -999
2009-01-21 08:47:39 51°13.726 2°52.52 -999 -999 -999 -999 -999
2009-01-21 08:47:44 51°13.723 2°52.516 -999 -999 -999 -999 -999
2009-01-21 08:47:49 51°13.719 2°52.512 -999 -999 -999 -999 -999
2009-01-21 08:47:54 51°13.716 2°52.507 -999 -999 -999 -999 -999
2009-01-21 08:47:59 51°13.713 2°52.502 -999 -999 -999 -999 -999
2009-01-21 08:48:04 51°13.711 2°52.496 -999 -999 -999 -999 -999
2009-01-21 08:48:09 51°13.709 2°52.491 -999 -999 -999 -999 -999
2009-01-21 08:48:14 51°13.707 2°52.486 -999 -999 -999 -999 -999
2009-01-21 08:48:19 51°13.705 2°52.481 -999 -999 -999 -999 -999
2009-01-21 08:48:24 51°13.704 2°52.477 -999 -999 -999 -999 -999
2009-01-21 08:48:29 51°13.703 2°52.472 -999 -999 -999 -999 -999
2009-01-21 08:48:34 51°13.702 2°52.468 -999 -999 -999 -999 -999
2009-01-21 08:48:39 51°13.701 2°52.463 -999 -999 -999 -999 -999
2009-01-21 08:48:44 51°13.701 2°52.459 -999 -999 -999 -999 -999
2009-01-21 08:48:49 51°13.701 2°52.455 -999 -999 -999 -999 -999
2009-01-21 08:48:54 51°13.7 2°52.451 -999 -999 -999 -999 -999
2009-01-21 08:48:59 51°13.7 2°52.448 -999 -999 -999 -999 -999
2009-01-21 08:49:04 51°13.7 2°52.444 -999 -999 -999 -999 -999
2009-01-21 08:49:09 51°13.7 2°52.44 -999 -999 -999 -999 -999
2009-01-21 08:49:14 51°13.7 2°52.437 -999 -999 -999 -999 -999
2009-01-21 08:49:19 51°13.701 2°52.433 -999 -999 -999 -999 -999
2009-01-21 08:49:24 51°13.701 2°52.43 -999 -999 -999 -999 -999
2009-01-21 08:49:29 51°13.701 2°52.427 -999 -999 -999 -999 -999
2009-01-21 08:49:35 51°13.701 2°52.423 -999 -999 -999 -999 -999
2009-01-21 08:49:39 51°13.702 2°52.421 -999 -999 -999 -999 -999
2009-01-21 08:49:44 51°13.702 2°52.418 -999 -999 -999 -999 -999
2009-01-21 08:49:49 51°13.703 2°52.416 -999 -999 -999 -999 -999
2009-01-21 08:49:54 51°13.703 2°52.413 -999 -999 -999 -999 -999
2009-01-21 08:49:59 51°13.703 2°52.41 -999 -999 -999 -999 -999
2009-01-21 08:50:04 51°13.704 2°52.407 -999 -999 -999 -999 -999
2009-01-21 08:50:09 51°13.704 2°52.405 -999 -999 -999 -999 -999
2009-01-21 08:50:14 51°13.704 2°52.401 -999 -999 -999 -999 -999
2009-01-21 08:50:19 51°13.704 2°52.398 -999 -999 -999 -999 -999
2009-01-21 08:50:24 51°13.704 2°52.393 -999 -999 -999 -999 -999
2009-01-21 08:50:29 51°13.703 2°52.389 -999 -999 -999 -999 -999
2009-01-21 08:50:34 51°13.702 2°52.384 -999 -999 -999 -999 -999
2009-01-21 08:50:39 51°13.701 2°52.379 -999 -999 -999 -999 -999
2009-01-21 08:50:44 51°13.7 2°52.374 -999 -999 -999 -999 -999
2009-01-21 08:50:49 51°13.698 2°52.369 -999 -999 -999 -999 -999
2009-01-21 08:50:54 51°13.696 2°52.364 -999 -999 -999 -999 -999
2009-01-21 08:50:59 51°13.695 2°52.359 -999 -999 -999 -999 -999
2009-01-21 08:51:04 51°13.692 2°52.354 -999 -999 -999 -999 -999
2009-01-21 08:51:09 51°13.69 2°52.349 -999 -999 -999 -999 -999
2009-01-21 08:51:14 51°13.688 2°52.344 -999 -999 -999 -999 -999
2009-01-21 08:51:19 51°13.686 2°52.34 -999 -999 -999 -999 -999
2009-01-21 08:51:24 51°13.684 2°52.335 -999 -999 -999 -999 -999
2009-01-21 08:51:29 51°13.682 2°52.33 -999 -999 -999 -999 -999
2009-01-21 08:51:34 51°13.679 2°52.326 -999 -999 -999 -999 -999
2009-01-21 08:51:39 51°13.677 2°52.321 -999 -999 -999 -999 -999
2009-01-21 08:51:44 51°13.675 2°52.316 -999 -999 -999 -999 -999
2009-01-21 08:51:49 51°13.672 2°52.312 -999 -999 -999 -999 -999
2009-01-21 08:51:54 51°13.67 2°52.307 -999 -999 -999 -999 -999
2009-01-21 08:51:59 51°13.668 2°52.303 -999 -999 -999 -999 -999
2009-01-21 08:52:04 51°13.666 2°52.298 -999 -999 -999 -999 -999
2009-01-21 08:52:09 51°13.664 2°52.294 -999 -999 -999 -999 -999
2009-01-21 08:52:14 51°13.662 2°52.289 -999 -999 -999 -999 -999
2009-01-21 08:52:19 51°13.66 2°52.284 -999 -999 -999 -999 -999
2009-01-21 08:52:24 51°13.658 2°52.28 -999 -999 -999 -999 -999
2009-01-21 08:52:29 51°13.656 2°52.275 -999 -999 -999 -999 -999
2009-01-21 08:52:34 51°13.655 2°52.271 -999 -999 -999 -999 -999
2009-01-21 08:52:39 51°13.653 2°52.266 -999 -999 -999 -999 -999
2009-01-21 08:52:44 51°13.652 2°52.262 -999 -999 -999 -999 -999
2009-01-21 08:52:49 51°13.65 2°52.257 -999 -999 -999 -999 -999
2009-01-21 08:52:54 51°13.649 2°52.253 -999 -999 -999 -999 -999
2009-01-21 08:52:59 51°13.648 2°52.249 -999 -999 -999 -999 -999
2009-01-21 08:53:04 51°13.647 2°52.245 -999 -999 -999 -999 -999
2009-01-21 08:53:09 51°13.646 2°52.24 -999 -999 -999 -999 -999
2009-01-21 08:53:14 51°13.645 2°52.236 -999 -999 -999 -999 -999
2009-01-21 08:53:19 51°13.644 2°52.232 -999 -999 -999 -999 -999
2009-01-21 08:53:24 51°13.643 2°52.228 -999 -999 -999 -999 -999
2009-01-21 08:53:29 51°13.642 2°52.224 -999 -999 -999 -999 -999
2009-01-21 08:53:34 51°13.641 2°52.22 -999 -999 -999 -999 -999
2009-01-21 08:53:39 51°13.64 2°52.216 -999 -999 -999 -999 -999
2009-01-21 08:53:44 51°13.639 2°52.212 -999 -999 -999 -999 -999
2009-01-21 08:53:49 51°13.638 2°52.208 -999 -999 -999 -999 -999
2009-01-21 08:53:55 51°13.638 2°52.203 -999 -999 -999 -999 -999
2009-01-21 08:53:59 51°13.637 2°52.2 -999 -999 -999 -999 -999
2009-01-21 08:54:04 51°13.636 2°52.197 -999 -999 -999 -999 -999
2009-01-21 08:54:09 51°13.635 2°52.192 -999 -999 -999 -999 -999
2009-01-21 08:54:14 51°13.634 2°52.188 -999 -999 -999 -999 -999
2009-01-21 08:54:19 51°13.633 2°52.184 -999 -999 -999 -999 -999
2009-01-21 08:54:24 51°13.632 2°52.18 -999 -999 -999 -999 -999
2009-01-21 08:54:29 51°13.631 2°52.176 -999 -999 -999 -999 -999
2009-01-21 08:54:34 51°13.63 2°52.172 -999 -999 -999 -999 -999
2009-01-21 08:54:39 51°13.629 2°52.167 -999 -999 -999 -999 -999
2009-01-21 08:54:44 51°13.628 2°52.163 -999 -999 -999 -999 -999
2009-01-21 08:54:49 51°13.627 2°52.158 -999 -999 -999 -999 -999
2009-01-21 08:54:54 51°13.626 2°52.154 -999 -999 -999 -999 -999
2009-01-21 08:54:59 51°13.625 2°52.149 -999 -999 -999 -999 -999
2009-01-21 08:55:04 51°13.623 2°52.145 -999 -999 -999 -999 -999
2009-01-21 08:55:09 51°13.622 2°52.14 -999 -999 -999 -999 -999
2009-01-21 08:55:14 51°13.621 2°52.135 -999 -999 -999 -999 -999
2009-01-21 08:55:19 51°13.62 2°52.131 -999 -999 -999 -999 -999
2009-01-21 08:55:24 51°13.619 2°52.126 -999 -999 -999 -999 -999
2009-01-21 08:55:29 51°13.618 2°52.121 -999 -999 -999 -999 -999
2009-01-21 08:55:34 51°13.617 2°52.117 -999 -999 -999 -999 -999
2009-01-21 08:55:39 51°13.615 2°52.112 -999 -999 -999 -999 -999
2009-01-21 08:55:44 51°13.614 2°52.107 -999 -999 -999 -999 -999
2009-01-21 08:55:49 51°13.613 2°52.102 -999 -999 -999 -999 -999
2009-01-21 08:55:54 51°13.612 2°52.097 -999 -999 -999 -999 -999
2009-01-21 08:55:59 51°13.611 2°52.092 -999 -999 -999 -999 -999
2009-01-21 08:56:04 51°13.609 2°52.088 -999 -999 -999 -999 -999
2009-01-21 08:56:09 51°13.608 2°52.083 -999 -999 -999 -999 -999
2009-01-21 08:56:15 51°13.607 2°52.077 -999 -999 -999 -999 -999
2009-01-21 08:56:19 51°13.606 2°52.073 -999 -999 -999 -999 -999
2009-01-21 08:56:24 51°13.605 2°52.069 -999 -999 -999 -999 -999
2009-01-21 08:56:29 51°13.604 2°52.064 -999 -999 -999 -999 -999
2009-01-21 08:56:34 51°13.603 2°52.059 -999 -999 -999 -999 -999
2009-01-21 08:56:39 51°13.602 2°52.055 -999 -999 -999 -999 -999
2009-01-21 08:56:44 51°13.602 2°52.05 -999 -999 -999 -999 -999
2009-01-21 08:56:49 51°13.601 2°52.045 -999 -999 -999 -999 -999
2009-01-21 08:56:54 51°13.6 2°52.041 -999 -999 -999 -999 -999
2009-01-21 08:56:59 51°13.599 2°52.036 -999 -999 -999 -999 -999
2009-01-21 08:57:04 51°13.598 2°52.032 -999 -999 -999 -999 -999
2009-01-21 08:57:09 51°13.597 2°52.027 -999 -999 -999 -999 -999
2009-01-21 08:57:14 51°13.597 2°52.023 -999 -999 -999 -999 -999
2009-01-21 08:57:19 51°13.596 2°52.019 -999 -999 -999 -999 -999
2009-01-21 08:57:24 51°13.595 2°52.014 -999 -999 -999 -999 -999
2009-01-21 08:57:29 51°13.594 2°52.01 -999 -999 -999 -999 -999
2009-01-21 08:57:34 51°13.593 2°52.005 -999 -999 -999 -999 -999
2009-01-21 08:57:39 51°13.593 2°52.001 -999 -999 -999 -999 -999
2009-01-21 08:57:44 51°13.592 2°51.997 -999 -999 -999 -999 -999
2009-01-21 08:57:49 51°13.591 2°51.992 -999 -999 -999 -999 -999
2009-01-21 08:57:54 51°13.59 2°51.988 -999 -999 -999 -999 -999
2009-01-21 08:57:59 51°13.59 2°51.984 -999 -999 -999 -999 -999
2009-01-21 08:58:04 51°13.589 2°51.979 -999 -999 -999 -999 -999
2009-01-21 08:58:09 51°13.589 2°51.975 -999 -999 -999 -999 -999
2009-01-21 08:58:14 51°13.588 2°51.971 -999 -999 -999 -999 -999
2009-01-21 08:58:19 51°13.587 2°51.966 -999 -999 -999 -999 -999
2009-01-21 08:58:24 51°13.587 2°51.962 -999 -999 -999 -999 -999
2009-01-21 08:58:29 51°13.586 2°51.957 -999 -999 -999 -999 -999
2009-01-21 08:58:34 51°13.586 2°51.953 -999 -999 -999 -999 -999
2009-01-21 08:58:39 51°13.585 2°51.949 -999 -999 -999 -999 -999
2009-01-21 08:58:44 51°13.584 2°51.944 -999 -999 -999 -999 -999
2009-01-21 08:58:49 51°13.584 2°51.94 -999 -999 -999 -999 -999
2009-01-21 08:58:54 51°13.583 2°51.936 -999 -999 -999 -999 -999
2009-01-21 08:58:59 51°13.583 2°51.931 -999 -999 -999 -999 -999
2009-01-21 08:59:04 51°13.582 2°51.927 -999 -999 -999 -999 -999
2009-01-21 08:59:09 51°13.582 2°51.922 -999 -999 -999 -999 -999
2009-01-21 08:59:14 51°13.582 2°51.918 -999 -999 -999 -999 -999
2009-01-21 08:59:19 51°13.581 2°51.913 -999 -999 -999 -999 -999
2009-01-21 08:59:24 51°13.581 2°51.909 -999 -999 -999 -999 -999
2009-01-21 08:59:29 51°13.581 2°51.905 -999 -999 -999 -999 -999
2009-01-21 08:59:34 51°13.58 2°51.9 -999 -999 -999 -999 -999
2009-01-21 08:59:39 51°13.58 2°51.896 -999 -999 -999 -999 -999
2009-01-21 08:59:44 51°13.579 2°51.891 -999 -999 -999 -999 -999
2009-01-21 08:59:49 51°13.579 2°51.887 -999 -999 -999 -999 -999
2009-01-21 08:59:54 51°13.579 2°51.882 -999 -999 -999 -999 -999
2009-01-21 08:59:59 51°13.578 2°51.878 -999 -999 -999 -999 -999
2009-01-21 09:00:04 51°13.578 2°51.873 -999 -999 -999 -999 -999
2009-01-21 09:00:09 51°13.578 2°51.869 -999 -999 -999 -999 -999
2009-01-21 09:00:14 51°13.577 2°51.864 -999 -999 -999 -999 -999
2009-01-21 09:00:19 51°13.577 2°51.86 -999 -999 -999 -999 -999
2009-01-21 09:00:24 51°13.577 2°51.856 -999 -999 -999 -999 -999
2009-01-21 09:00:29 51°13.577 2°51.851 -999 -999 -999 -999 -999
2009-01-21 09:00:35 51°13.576 2°51.846 -999 -999 -999 -999 -999
2009-01-21 09:00:39 51°13.576 2°51.842 -999 -999 -999 -999 -999
2009-01-21 09:00:44 51°13.576 2°51.838 -999 -999 -999 -999 -999
2009-01-21 09:00:49 51°13.576 2°51.833 -999 -999 -999 -999 -999
2009-01-21 09:00:54 51°13.575 2°51.829 -999 -999 -999 -999 -999
2009-01-21 09:00:59 51°13.575 2°51.825 -999 -999 -999 -999 -999
2009-01-21 09:01:04 51°13.575 2°51.82 -999 -999 -999 -999 -999
2009-01-21 09:01:09 51°13.575 2°51.816 -999 -999 -999 -999 -999
2009-01-21 09:01:14 51°13.574 2°51.812 -999 -999 -999 -999 -999
2009-01-21 09:01:19 51°13.574 2°51.807 -999 -999 -999 -999 -999
2009-01-21 09:01:24 51°13.574 2°51.803 -999 -999 -999 -999 -999
2009-01-21 09:01:29 51°13.574 2°51.799 -999 -999 -999 -999 -999
2009-01-21 09:01:34 51°13.573 2°51.795 -999 -999 -999 -999 -999
2009-01-21 09:01:39 51°13.573 2°51.791 -999 -999 -999 -999 -999
2009-01-21 09:01:44 51°13.572 2°51.787 -999 -999 -999 -999 -999
2009-01-21 09:01:49 51°13.572 2°51.783 -999 -999 -999 -999 -999
2009-01-21 09:01:54 51°13.571 2°51.779 -999 -999 -999 -999 -999
2009-01-21 09:01:59 51°13.571 2°51.775 -999 -999 -999 -999 -999
2009-01-21 09:02:04 51°13.57 2°51.771 -999 -999 -999 -999 -999
2009-01-21 09:02:09 51°13.569 2°51.767 -999 -999 -999 -999 -999
2009-01-21 09:02:14 51°13.569 2°51.764 -999 -999 -999 -999 -999
2009-01-21 09:02:19 51°13.568 2°51.76 -999 -999 -999 -999 -999
2009-01-21 09:02:24 51°13.567 2°51.756 -999 -999 -999 -999 -999
2009-01-21 09:02:29 51°13.566 2°51.753 -999 -999 -999 -999 -999
2009-01-21 09:02:35 51°13.565 2°51.749 -999 -999 -999 -999 -999
2009-01-21 09:02:39 51°13.563 2°51.747 -999 -999 -999 -999 -999
2009-01-21 09:02:44 51°13.562 2°51.743 -999 -999 -999 -999 -999
2009-01-21 09:02:49 51°13.561 2°51.74 -999 -999 -999 -999 -999
2009-01-21 09:02:54 51°13.56 2°51.737 -999 -999 -999 -999 -999
2009-01-21 09:02:59 51°13.558 2°51.734 -999 -999 -999 -999 -999
2009-01-21 09:03:04 51°13.557 2°51.731 -999 -999 -999 -999 -999
2009-01-21 09:03:09 51°13.556 2°51.729 -999 -999 -999 -999 -999
2009-01-21 09:03:14 51°13.554 2°51.726 -999 -999 -999 -999 -999
2009-01-21 09:03:19 51°13.553 2°51.723 -999 -999 -999 -999 -999
2009-01-21 09:03:24 51°13.551 2°51.719 -999 -999 -999 -999 -999
2009-01-21 09:03:29 51°13.549 2°51.716 -999 -999 -999 -999 -999
2009-01-21 09:03:34 51°13.548 2°51.712 -999 -999 -999 -999 -999
2009-01-21 09:03:39 51°13.546 2°51.709 -999 -999 -999 -999 -999
2009-01-21 09:03:44 51°13.544 2°51.705 -999 -999 -999 -999 -999
2009-01-21 09:03:49 51°13.542 2°51.701 -999 -999 -999 -999 -999
2009-01-21 09:03:54 51°13.54 2°51.696 -999 -999 -999 -999 -999
2009-01-21 09:03:59 51°13.538 2°51.692 -999 -999 -999 -999 -999
2009-01-21 09:04:04 51°13.536 2°51.688 -999 -999 -999 -999 -999
2009-01-21 09:04:09 51°13.534 2°51.684 -999 -999 -999 -999 -999
2009-01-21 09:04:14 51°13.532 2°51.679 -999 -999 -999 -999 -999
2009-01-21 09:04:19 51°13.53 2°51.675 -999 -999 -999 -999 -999
2009-01-21 09:04:24 51°13.528 2°51.67 -999 -999 -999 -999 -999
2009-01-21 09:04:29 51°13.525 2°51.666 -999 -999 -999 -999 -999
2009-01-21 09:04:34 51°13.523 2°51.661 -999 -999 -999 -999 -999
2009-01-21 09:04:39 51°13.521 2°51.657 -999 -999 -999 -999 -999
2009-01-21 09:04:44 51°13.518 2°51.652 -999 -999 -999 -999 -999
2009-01-21 09:04:49 51°13.516 2°51.648 -999 -999 -999 -999 -999
2009-01-21 09:04:54 51°13.514 2°51.643 -999 -999 -999 -999 -999
2009-01-21 09:04:59 51°13.511 2°51.639 -999 -999 -999 -999 -999
2009-01-21 09:05:04 51°13.509 2°51.634 -999 -999 -999 -999 -999
2009-01-21 09:05:09 51°13.506 2°51.63 -999 -999 -999 -999 -999
2009-01-21 09:05:14 51°13.503 2°51.625 -999 -999 -999 -999 -999
2009-01-21 09:05:19 51°13.501 2°51.621 -999 -999 -999 -999 -999
2009-01-21 09:05:24 51°13.498 2°51.617 -999 -999 -999 -999 -999
2009-01-21 09:05:29 51°13.495 2°51.613 -999 -999 -999 -999 -999
2009-01-21 09:05:34 51°13.493 2°51.609 -999 -999 -999 -999 -999
2009-01-21 09:05:39 51°13.491 2°51.606 -999 -999 -999 -999 -999
2009-01-21 09:05:44 51°13.488 2°51.602 -999 -999 -999 -999 -999
2009-01-21 09:05:49 51°13.486 2°51.599 -999 -999 -999 -999 -999
2009-01-21 09:05:54 51°13.484 2°51.596 -999 -999 -999 -999 -999
2009-01-21 09:05:59 51°13.482 2°51.593 -999 -999 -999 -999 -999
2009-01-21 09:06:04 51°13.479 2°51.59 -999 -999 -999 -999 -999
2009-01-21 09:06:09 51°13.477 2°51.587 -999 -999 -999 -999 -999
2009-01-21 09:06:14 51°13.475 2°51.584 -999 -999 -999 -999 -999
2009-01-21 09:06:19 51°13.473 2°51.581 -999 -999 -999 -999 -999
2009-01-21 09:06:24 51°13.472 2°51.578 -999 -999 -999 -999 -999
2009-01-21 09:06:29 51°13.47 2°51.576 -999 -999 -999 -999 -999
2009-01-21 09:06:34 51°13.468 2°51.573 -999 -999 -999 -999 -999
2009-01-21 09:06:39 51°13.466 2°51.571 -999 -999 -999 -999 -999
2009-01-21 09:06:44 51°13.464 2°51.569 -999 -999 -999 -999 -999
2009-01-21 09:06:49 51°13.463 2°51.566 -999 -999 -999 -999 -999
2009-01-21 09:06:54 51°13.461 2°51.564 -999 -999 -999 -999 -999
2009-01-21 09:06:59 51°13.459 2°51.562 -999 -999 -999 -999 -999
2009-01-21 09:07:04 51°13.457 2°51.56 -999 -999 -999 -999 -999
2009-01-21 09:07:09 51°13.456 2°51.558 -999 -999 -999 -999 -999
2009-01-21 09:07:14 51°13.454 2°51.556 -999 -999 -999 -999 -999
2009-01-21 09:07:19 51°13.452 2°51.554 -999 -999 -999 -999 -999
2009-01-21 09:07:24 51°13.45 2°51.552 -999 -999 -999 -999 -999
2009-01-21 09:07:29 51°13.448 2°51.55 -999 -999 -999 -999 -999
2009-01-21 09:07:34 51°13.446 2°51.548 -999 -999 -999 -999 -999
2009-01-21 09:07:39 51°13.444 2°51.546 -999 -999 -999 -999 -999
2009-01-21 09:07:44 51°13.442 2°51.545 -999 -999 -999 -999 -999
2009-01-21 09:07:49 51°13.44 2°51.543 -999 -999 -999 -999 -999
2009-01-21 09:07:54 51°13.437 2°51.541 -999 -999 -999 -999 -999
2009-01-21 09:07:59 51°13.435 2°51.54 -999 -999 -999 -999 -999
2009-01-21 09:08:04 51°13.433 2°51.538 -999 -999 -999 -999 -999
2009-01-21 09:08:09 51°13.43 2°51.536 -999 -999 -999 -999 -999
2009-01-21 09:08:14 51°13.428 2°51.534 -999 -999 -999 -999 -999
2009-01-21 09:08:19 51°13.425 2°51.533 -999 -999 -999 -999 -999
2009-01-21 09:08:24 51°13.422 2°51.531 -999 -999 -999 -999 -999
2009-01-21 09:08:29 51°13.42 2°51.529 -999 -999 -999 -999 -999
2009-01-21 09:08:34 51°13.417 2°51.528 -999 -999 -999 -999 -999
2009-01-21 09:08:39 51°13.414 2°51.526 -999 -999 -999 -999 -999
2009-01-21 09:08:44 51°13.412 2°51.524 -999 -999 -999 -999 -999
2009-01-21 09:08:49 51°13.409 2°51.523 -999 -999 -999 -999 -999
2009-01-21 09:08:54 51°13.406 2°51.521 -999 -999 -999 -999 -999
2009-01-21 09:08:59 51°13.403 2°51.519 -999 -999 -999 -999 -999
2009-01-21 09:09:04 51°13.4 2°51.518 -999 -999 -999 -999 -999
2009-01-21 09:09:09 51°13.398 2°51.516 -999 -999 -999 -999 -999
2009-01-21 09:09:14 51°13.395 2°51.515 -999 -999 -999 -999 -999
2009-01-21 09:09:19 51°13.392 2°51.513 -999 -999 -999 -999 -999
2009-01-21 09:09:24 51°13.389 2°51.511 -999 -999 -999 -999 -999
2009-01-21 09:09:29 51°13.386 2°51.509 -999 -999 -999 -999 -999
2009-01-21 09:09:34 51°13.383 2°51.507 -999 -999 -999 -999 -999
2009-01-21 09:09:39 51°13.38 2°51.506 -999 -999 -999 -999 -999
2009-01-21 09:09:44 51°13.377 2°51.504 -999 -999 -999 -999 -999
2009-01-21 09:09:49 51°13.375 2°51.502 -999 -999 -999 -999 -999
2009-01-21 09:09:54 51°13.372 2°51.501 -999 -999 -999 -999 -999
2009-01-21 09:09:59 51°13.369 2°51.499 -999 -999 -999 -999 -999
2009-01-21 09:10:04 51°13.366 2°51.497 -999 -999 -999 -999 -999
2009-01-21 09:10:09 51°13.363 2°51.496 -999 -999 -999 -999 -999
2009-01-21 09:10:14 51°13.36 2°51.495 -999 -999 -999 -999 -999
2009-01-21 09:10:19 51°13.356 2°51.493 -999 -999 -999 -999 -999
2009-01-21 09:10:24 51°13.353 2°51.492 -999 -999 -999 -999 -999
2009-01-21 09:10:29 51°13.35 2°51.491 -999 -999 -999 -999 -999
2009-01-21 09:10:34 51°13.347 2°51.489 -999 -999 -999 -999 -999
2009-01-21 09:10:39 51°13.344 2°51.488 -999 -999 -999 -999 -999
2009-01-21 09:10:44 51°13.341 2°51.487 -999 -999 -999 -999 -999
2009-01-21 09:10:49 51°13.338 2°51.486 -999 -999 -999 -999 -999
2009-01-21 09:10:54 51°13.335 2°51.484 -999 -999 -999 -999 -999
2009-01-21 09:10:59 51°13.332 2°51.483 -999 -999 -999 -999 -999
2009-01-21 09:11:04 51°13.328 2°51.482 -999 -999 -999 -999 -999
2009-01-21 09:11:09 51°13.325 2°51.481 -999 -999 -999 -999 -999
2009-01-21 09:11:14 51°13.322 2°51.48 -999 -999 -999 -999 -999
2009-01-21 09:11:19 51°13.319 2°51.478 -999 -999 -999 -999 -999
2009-01-21 09:11:24 51°13.316 2°51.477 -999 -999 -999 -999 -999
2009-01-21 09:11:29 51°13.313 2°51.476 -999 -999 -999 -999 -999
2009-01-21 09:11:34 51°13.31 2°51.474 -999 -999 -999 -999 -999
2009-01-21 09:11:39 51°13.307 2°51.473 -999 -999 -999 -999 -999
2009-01-21 09:11:44 51°13.305 2°51.472 -999 -999 -999 -999 -999
2009-01-21 09:11:49 51°13.302 2°51.47 -999 -999 -999 -999 -999
2009-01-21 09:11:54 51°13.299 2°51.469 -999 -999 -999 -999 -999
2009-01-21 09:11:59 51°13.296 2°51.467 -999 -999 -999 -999 -999
2009-01-21 09:12:04 51°13.293 2°51.465 -999 -999 -999 -999 -999
2009-01-21 09:12:09 51°13.291 2°51.464 -999 -999 -999 -999 -999
2009-01-21 09:12:14 51°13.288 2°51.462 -999 -999 -999 -999 -999
2009-01-21 09:12:19 51°13.285 2°51.46 -999 -999 -999 -999 -999
2009-01-21 09:12:24 51°13.283 2°51.459 -999 -999 -999 -999 -999
2009-01-21 09:12:29 51°13.28 2°51.456 -999 -999 -999 -999 -999
2009-01-21 09:12:34 51°13.277 2°51.455 -999 -999 -999 -999 -999
2009-01-21 09:12:39 51°13.275 2°51.452 -999 -999 -999 -999 -999
2009-01-21 09:12:44 51°13.272 2°51.45 -999 -999 -999 -999 -999
2009-01-21 09:12:49 51°13.27 2°51.448 -999 -999 -999 -999 -999
2009-01-21 09:12:54 51°13.267 2°51.446 -999 -999 -999 -999 -999
2009-01-21 09:12:59 51°13.265 2°51.444 -999 -999 -999 -999 -999
2009-01-21 09:13:04 51°13.262 2°51.441 -999 -999 -999 -999 -999
2009-01-21 09:13:09 51°13.26 2°51.439 -999 -999 -999 -999 -999
2009-01-21 09:13:14 51°13.258 2°51.437 -999 -999 -999 -999 -999
2009-01-21 09:13:19 51°13.255 2°51.434 -999 -999 -999 -999 -999
2009-01-21 09:13:24 51°13.253 2°51.432 -999 -999 -999 -999 -999
2009-01-21 09:13:29 51°13.251 2°51.429 -999 -999 -999 -999 -999
2009-01-21 09:13:34 51°13.248 2°51.426 -999 -999 -999 -999 -999
2009-01-21 09:13:39 51°13.246 2°51.424 -999 -999 -999 -999 -999
2009-01-21 09:13:44 51°13.244 2°51.421 -999 -999 -999 -999 -999
2009-01-21 09:13:49 51°13.242 2°51.418 -999 -999 -999 -999 -999
2009-01-21 09:13:54 51°13.239 2°51.416 -999 -999 -999 -999 -999
2009-01-21 09:13:59 51°13.237 2°51.413 -999 -999 -999 -999 -999
2009-01-21 09:14:04 51°13.235 2°51.41 -999 -999 -999 -999 -999
2009-01-21 09:14:09 51°13.233 2°51.407 -999 -999 -999 -999 -999
2009-01-21 09:14:15 51°13.23 2°51.403 -999 -999 -999 -999 -999
2009-01-21 09:14:19 51°13.229 2°51.401 -999 -999 -999 -999 -999
2009-01-21 09:14:24 51°13.226 2°51.398 -999 -999 -999 -999 -999
2009-01-21 09:14:29 51°13.224 2°51.395 -999 -999 -999 -999 -999
2009-01-21 09:14:34 51°13.222 2°51.392 -999 -999 -999 -999 -999
2009-01-21 09:14:39 51°13.22 2°51.389 -999 -999 -999 -999 -999
2009-01-21 09:14:44 51°13.218 2°51.385 -999 -999 -999 -999 -999
2009-01-21 09:14:49 51°13.216 2°51.382 -999 -999 -999 -999 -999
2009-01-21 09:14:54 51°13.214 2°51.379 -999 -999 -999 -999 -999
2009-01-21 09:14:59 51°13.212 2°51.375 -999 -999 -999 -999 -999
2009-01-21 09:15:04 51°13.21 2°51.372 -999 -999 -999 -999 -999
2009-01-21 09:15:09 51°13.208 2°51.369 -999 -999 -999 -999 -999
2009-01-21 09:15:14 51°13.206 2°51.365 -999 -999 -999 -999 -999
2009-01-21 09:15:19 51°13.204 2°51.362 -999 -999 -999 -999 -999
2009-01-21 09:15:24 51°13.202 2°51.358 -999 -999 -999 -999 -999
2009-01-21 09:15:29 51°13.2 2°51.354 -999 -999 -999 -999 -999
2009-01-21 09:15:34 51°13.198 2°51.351 -999 -999 -999 -999 -999
2009-01-21 09:15:39 51°13.197 2°51.347 -999 -999 -999 -999 -999
2009-01-21 09:15:44 51°13.195 2°51.344 -999 -999 -999 -999 -999
2009-01-21 09:15:49 51°13.193 2°51.34 -999 -999 -999 -999 -999
2009-01-21 09:15:54 51°13.191 2°51.336 -999 -999 -999 -999 -999
2009-01-21 09:15:59 51°13.189 2°51.333 -999 -999 -999 -999 -999
2009-01-21 09:16:04 51°13.188 2°51.329 -999 -999 -999 -999 -999
2009-01-21 09:16:09 51°13.186 2°51.325 -999 -999 -999 -999 -999
2009-01-21 09:16:14 51°13.184 2°51.321 -999 -999 -999 -999 -999
2009-01-21 09:16:19 51°13.182 2°51.317 -999 -999 -999 -999 -999
2009-01-21 09:16:24 51°13.181 2°51.314 -999 -999 -999 -999 -999
2009-01-21 09:16:29 51°13.179 2°51.31 -999 -999 -999 -999 -999
2009-01-21 09:16:35 51°13.177 2°51.305 -999 -999 -999 -999 -999
2009-01-21 09:16:39 51°13.175 2°51.302 -999 -999 -999 -999 -999
2009-01-21 09:16:44 51°13.174 2°51.298 -999 -999 -999 -999 -999
2009-01-21 09:16:49 51°13.172 2°51.294 -999 -999 -999 -999 -999
2009-01-21 09:16:54 51°13.17 2°51.29 -999 -999 -999 -999 -999
2009-01-21 09:16:59 51°13.169 2°51.286 -999 -999 -999 -999 -999
2009-01-21 09:17:04 51°13.167 2°51.282 -999 -999 -999 -999 -999
2009-01-21 09:17:09 51°13.165 2°51.278 -999 -999 -999 -999 -999
2009-01-21 09:17:14 51°13.164 2°51.274 -999 -999 -999 -999 -999
2009-01-21 09:17:19 51°13.162 2°51.27 -999 -999 -999 -999 -999
2009-01-21 09:17:24 51°13.16 2°51.267 -999 -999 -999 -999 -999
2009-01-21 09:17:29 51°13.158 2°51.263 -999 -999 -999 -999 -999
2009-01-21 09:17:34 51°13.157 2°51.259 -999 -999 -999 -999 -999
2009-01-21 09:17:39 51°13.155 2°51.255 -999 -999 -999 -999 -999
2009-01-21 09:17:44 51°13.153 2°51.251 -999 -999 -999 -999 -999
2009-01-21 09:17:49 51°13.151 2°51.247 -999 -999 -999 -999 -999
2009-01-21 09:17:54 51°13.149 2°51.243 -999 -999 -999 -999 -999
2009-01-21 09:17:59 51°13.148 2°51.24 -999 -999 -999 -999 -999
2009-01-21 09:18:04 51°13.146 2°51.236 -999 -999 -999 -999 -999
2009-01-21 09:18:09 51°13.144 2°51.232 -999 -999 -999 -999 -999
2009-01-21 09:18:14 51°13.142 2°51.228 -999 -999 -999 -999 -999
2009-01-21 09:18:19 51°13.14 2°51.224 -999 -999 -999 -999 -999
2009-01-21 09:18:24 51°13.139 2°51.22 -999 -999 -999 -999 -999
2009-01-21 09:18:29 51°13.137 2°51.217 -999 -999 -999 -999 -999
2009-01-21 09:18:35 51°13.134 2°51.212 -999 -999 -999 -999 -999
2009-01-21 09:18:39 51°13.133 2°51.209 -999 -999 -999 -999 -999
2009-01-21 09:18:44 51°13.131 2°51.205 -999 -999 -999 -999 -999
2009-01-21 09:18:49 51°13.129 2°51.201 -999 -999 -999 -999 -999
2009-01-21 09:18:54 51°13.127 2°51.198 -999 -999 -999 -999 -999
2009-01-21 09:18:59 51°13.125 2°51.194 -999 -999 -999 -999 -999
2009-01-21 09:19:04 51°13.124 2°51.19 -999 -999 -999 -999 -999
2009-01-21 09:19:09 51°13.122 2°51.186 -999 -999 -999 -999 -999
2009-01-21 09:19:14 51°13.12 2°51.182 -999 -999 -999 -999 -999
2009-01-21 09:19:19 51°13.118 2°51.178 -999 -999 -999 -999 -999
2009-01-21 09:19:24 51°13.117 2°51.174 -999 -999 -999 -999 -999
2009-01-21 09:19:29 51°13.115 2°51.17 -999 -999 -999 -999 -999
2009-01-21 09:19:34 51°13.113 2°51.166 -999 -999 -999 -999 -999
2009-01-21 09:19:39 51°13.112 2°51.162 -999 -999 -999 -999 -999
2009-01-21 09:19:44 51°13.11 2°51.157 -999 -999 -999 -999 -999
2009-01-21 09:19:49 51°13.108 2°51.153 -999 -999 -999 -999 -999
2009-01-21 09:19:54 51°13.107 2°51.149 -999 -999 -999 -999 -999
2009-01-21 09:19:59 51°13.105 2°51.145 -999 -999 -999 -999 -999
2009-01-21 09:20:04 51°13.104 2°51.141 -999 -999 -999 -999 -999
2009-01-21 09:20:09 51°13.102 2°51.137 -999 -999 -999 -999 -999
2009-01-21 09:20:14 51°13.1 2°51.132 -999 -999 -999 -999 -999
2009-01-21 09:20:19 51°13.099 2°51.129 -999 -999 -999 -999 -999
2009-01-21 09:20:24 51°13.097 2°51.125 -999 -999 -999 -999 -999
2009-01-21 09:20:29 51°13.096 2°51.121 -999 -999 -999 -999 -999
2009-01-21 09:20:35 51°13.094 2°51.116 -999 -999 -999 -999 -999
2009-01-21 09:20:39 51°13.093 2°51.113 -999 -999 -999 -999 -999
2009-01-21 09:20:44 51°13.091 2°51.108 -999 -999 -999 -999 -999
2009-01-21 09:20:49 51°13.09 2°51.104 -999 -999 -999 -999 -999
2009-01-21 09:20:54 51°13.089 2°51.1 -999 -999 -999 -999 -999
2009-01-21 09:20:59 51°13.087 2°51.096 -999 -999 -999 -999 -999
2009-01-21 09:21:04 51°13.086 2°51.091 -999 -999 -999 -999 -999
2009-01-21 09:21:09 51°13.084 2°51.087 -999 -999 -999 -999 -999
2009-01-21 09:21:14 51°13.083 2°51.082 -999 -999 -999 -999 -999
2009-01-21 09:21:19 51°13.082 2°51.078 -999 -999 -999 -999 -999
2009-01-21 09:21:24 51°13.082 2°51.073 -999 -999 -999 -999 -999
2009-01-21 09:21:29 51°13.081 2°51.068 -999 -999 -999 -999 -999
2009-01-21 09:21:34 51°13.081 2°51.063 -999 -999 -999 -999 -999
2009-01-21 09:21:39 51°13.081 2°51.058 -999 -999 -999 -999 -999
2009-01-21 09:21:44 51°13.082 2°51.053 -999 -999 -999 -999 -999
2009-01-21 09:21:49 51°13.082 2°51.049 -999 -999 -999 -999 -999
2009-01-21 09:21:54 51°13.083 2°51.044 -999 -999 -999 -999 -999
2009-01-21 09:21:59 51°13.085 2°51.039 -999 -999 -999 -999 -999
2009-01-21 09:22:04 51°13.086 2°51.034 -999 -999 -999 -999 -999
2009-01-21 09:22:09 51°13.088 2°51.03 -999 -999 -999 -999 -999
2009-01-21 09:22:14 51°13.09 2°51.026 -999 -999 -999 -999 -999
2009-01-21 09:22:19 51°13.093 2°51.021 -999 -999 -999 -999 -999
2009-01-21 09:22:24 51°13.095 2°51.017 -999 -999 -999 -999 -999
2009-01-21 09:22:29 51°13.098 2°51.014 -999 -999 -999 -999 -999
2009-01-21 09:22:34 51°13.101 2°51.01 -999 -999 -999 -999 -999
2009-01-21 09:22:39 51°13.105 2°51.007 -999 -999 -999 -999 -999
2009-01-21 09:22:44 51°13.108 2°51.005 -999 -999 -999 -999 -999
2009-01-21 09:22:49 51°13.111 2°51.002 -999 -999 -999 -999 -999
2009-01-21 09:22:54 51°13.114 2°51 -999 -999 -999 -999 -999
2009-01-21 09:22:59 51°13.117 2°50.998 -999 -999 -999 -999 -999
2009-01-21 09:23:04 51°13.12 2°50.997 -999 -999 -999 -999 -999
2009-01-21 09:23:09 51°13.124 2°50.995 -999 -999 -999 -999 -999
2009-01-21 09:23:14 51°13.127 2°50.994 -999 -999 -999 -999 -999
2009-01-21 09:23:19 51°13.13 2°50.993 -999 -999 -999 -999 -999
2009-01-21 09:23:24 51°13.133 2°50.992 -999 -999 -999 -999 -999
2009-01-21 09:23:29 51°13.136 2°50.991 -999 -999 -999 -999 -999
2009-01-21 09:23:34 51°13.139 2°50.99 -999 -999 -999 -999 -999
2009-01-21 09:23:39 51°13.142 2°50.99 -999 -999 -999 -999 -999
2009-01-21 09:23:44 51°13.145 2°50.989 -999 -999 -999 -999 -999
2009-01-21 09:23:49 51°13.148 2°50.988 -999 -999 -999 -999 -999
2009-01-21 09:23:54 51°13.151 2°50.988 -999 -999 -999 -999 -999
2009-01-21 09:23:59 51°13.153 2°50.987 -999 -999 -999 -999 -999
2009-01-21 09:24:04 51°13.156 2°50.986 -999 -999 -999 -999 -999
2009-01-21 09:24:09 51°13.159 2°50.986 -999 -999 -999 -999 -999
2009-01-21 09:24:14 51°13.161 2°50.986 -999 -999 -999 -999 -999
2009-01-21 09:24:19 51°13.164 2°50.985 -999 -999 -999 -999 -999
2009-01-21 09:24:24 51°13.167 2°50.985 -999 -999 -999 -999 -999
2009-01-21 09:24:29 51°13.169 2°50.985 -999 -999 -999 -999 -999
2009-01-21 09:24:34 51°13.171 2°50.984 -999 -999 -999 -999 -999
2009-01-21 09:24:39 51°13.174 2°50.984 -999 -999 -999 -999 -999
2009-01-21 09:24:44 51°13.176 2°50.984 -999 -999 -999 -999 -999
2009-01-21 09:24:49 51°13.179 2°50.983 -999 -999 -999 -999 -999
2009-01-21 09:24:54 51°13.181 2°50.983 -999 -999 -999 -999 -999
2009-01-21 09:24:59 51°13.183 2°50.983 -999 -999 -999 -999 -999
2009-01-21 09:25:04 51°13.185 2°50.983 -999 -999 -999 -999 -999
2009-01-21 09:25:09 51°13.187 2°50.983 -999 -999 -999 -999 -999
2009-01-21 09:25:14 51°13.189 2°50.983 -999 -999 -999 -999 -999
2009-01-21 09:25:19 51°13.191 2°50.983 -999 -999 -999 -999 -999
2009-01-21 09:25:24 51°13.193 2°50.983 -999 -999 -999 -999 -999
2009-01-21 09:25:29 51°13.195 2°50.983 -999 -999 -999 -999 -999
2009-01-21 09:25:35 51°13.197 2°50.983 -999 -999 -999 -999 -999
2009-01-21 09:25:39 51°13.199 2°50.983 -999 -999 -999 -999 -999
2009-01-21 09:25:44 51°13.201 2°50.983 -999 -999 -999 -999 -999
2009-01-21 09:25:49 51°13.203 2°50.983 -999 -999 -999 -999 -999
2009-01-21 09:25:54 51°13.205 2°50.983 -999 -999 -999 -999 -999
2009-01-21 09:25:59 51°13.206 2°50.982 -999 -999 -999 -999 -999
2009-01-21 09:26:04 51°13.209 2°50.981 -999 -999 -999 -999 -999
2009-01-21 09:26:09 51°13.211 2°50.981 -999 -999 -999 -999 -999
2009-01-21 09:26:14 51°13.213 2°50.98 -999 -999 -999 -999 -999
2009-01-21 09:26:19 51°13.215 2°50.979 -999 -999 -999 -999 -999
2009-01-21 09:26:24 51°13.218 2°50.978 -999 -999 -999 -999 -999
2009-01-21 09:26:29 51°13.221 2°50.976 -999 -999 -999 -999 -999
2009-01-21 09:26:34 51°13.224 2°50.975 -999 -999 -999 -999 -999
2009-01-21 09:26:39 51°13.227 2°50.974 -999 -999 -999 -999 -999
2009-01-21 09:26:44 51°13.231 2°50.972 -999 -999 -999 -999 -999
2009-01-21 09:26:49 51°13.236 2°50.971 -999 -999 -999 -999 -999
2009-01-21 09:26:54 51°13.24 2°50.971 -999 -999 -999 -999 -999
2009-01-21 09:26:59 51°13.245 2°50.971 -999 -999 -999 -999 -999
2009-01-21 09:27:04 51°13.25 2°50.972 -999 -999 -999 -999 -999
2009-01-21 09:27:09 51°13.255 2°50.973 -999 -999 -999 -999 -999
2009-01-21 09:27:14 51°13.26 2°50.975 -999 -999 -999 -999 -999
2009-01-21 09:27:19 51°13.266 2°50.978 -999 -999 -999 -999 -999
2009-01-21 09:27:24 51°13.271 2°50.981 -999 -999 -999 -999 -999
2009-01-21 09:27:29 51°13.276 2°50.985 -999 -999 -999 -999 -999
2009-01-21 09:27:34 51°13.281 2°50.99 -999 -999 -999 -999 -999
2009-01-21 09:27:39 51°13.286 2°50.994 -999 -999 -999 -999 -999
2009-01-21 09:27:44 51°13.29 2°51 -999 -999 -999 -999 -999
2009-01-21 09:27:49 51°13.294 2°51.005 -999 -999 -999 -999 -999
2009-01-21 09:27:55 51°13.299 2°51.012 -999 -999 -999 -999 -999
2009-01-21 09:27:59 51°13.302 2°51.017 -999 -999 -999 -999 -999
2009-01-21 09:28:04 51°13.305 2°51.023 -999 -999 -999 -999 -999
2009-01-21 09:28:09 51°13.308 2°51.029 -999 -999 -999 -999 -999
2009-01-21 09:28:15 51°13.312 2°51.036 -999 -999 -999 -999 -999
2009-01-21 09:28:19 51°13.314 2°51.041 -999 -999 -999 -999 -999
2009-01-21 09:28:24 51°13.317 2°51.046 -999 -999 -999 -999 -999
2009-01-21 09:28:29 51°13.319 2°51.052 -999 -999 -999 -999 -999
2009-01-21 09:28:34 51°13.322 2°51.058 -999 -999 -999 -999 -999
2009-01-21 09:28:39 51°13.324 2°51.063 -999 -999 -999 -999 -999
2009-01-21 09:28:44 51°13.326 2°51.069 -999 -999 -999 -999 -999
2009-01-21 09:28:49 51°13.328 2°51.074 -999 -999 -999 -999 -999
2009-01-21 09:28:54 51°13.33 2°51.079 -999 -999 -999 -999 -999
2009-01-21 09:28:59 51°13.332 2°51.084 -999 -999 -999 -999 -999
2009-01-21 09:29:04 51°13.334 2°51.09 -999 -999 -999 -999 -999
2009-01-21 09:29:09 51°13.336 2°51.095 -999 -999 -999 -999 -999
2009-01-21 09:29:14 51°13.338 2°51.1 -999 -999 -999 -999 -999
2009-01-21 09:29:19 51°13.34 2°51.105 -999 -999 -999 -999 -999
2009-01-21 09:29:24 51°13.341 2°51.11 -999 -999 -999 -999 -999
2009-01-21 09:29:29 51°13.343 2°51.114 -999 -999 -999 -999 -999
2009-01-21 09:29:34 51°13.345 2°51.119 -999 -999 -999 -999 -999
2009-01-21 09:29:39 51°13.346 2°51.124 -999 -999 -999 -999 -999
2009-01-21 09:29:44 51°13.348 2°51.128 -999 -999 -999 -999 -999
2009-01-21 09:29:49 51°13.35 2°51.133 -999 -999 -999 -999 -999
2009-01-21 09:29:55 51°13.352 2°51.138 -999 -999 -999 -999 -999
2009-01-21 09:29:59 51°13.353 2°51.142 -999 -999 -999 -999 -999
2009-01-21 09:30:04 51°13.354 2°51.146 -999 -999 -999 -999 -999
2009-01-21 09:30:09 51°13.356 2°51.15 -999 -999 -999 -999 -999
2009-01-21 09:30:15 51°13.358 2°51.156 -999 -999 -999 -999 -999
2009-01-21 09:30:19 51°13.359 2°51.159 -999 -999 -999 -999 -999
2009-01-21 09:30:24 51°13.36 2°51.163 -999 -999 -999 -999 -999
2009-01-21 09:30:29 51°13.362 2°51.167 -999 -999 -999 -999 -999
2009-01-21 09:30:35 51°13.364 2°51.172 -999 -999 -999 -999 -999
2009-01-21 09:30:39 51°13.365 2°51.175 -999 -999 -999 -999 -999
2009-01-21 09:30:44 51°13.366 2°51.179 -999 -999 -999 -999 -999
2009-01-21 09:30:49 51°13.368 2°51.183 -999 -999 -999 -999 -999
2009-01-21 09:30:54 51°13.369 2°51.187 -999 -999 -999 -999 -999
2009-01-21 09:30:59 51°13.371 2°51.191 -999 -999 -999 -999 -999
2009-01-21 09:31:04 51°13.372 2°51.195 -999 -999 -999 -999 -999
2009-01-21 09:31:09 51°13.373 2°51.199 -999 -999 -999 -999 -999
2009-01-21 09:31:14 51°13.374 2°51.202 -999 -999 -999 -999 -999
2009-01-21 09:31:19 51°13.376 2°51.206 -999 -999 -999 -999 -999
2009-01-21 09:31:24 51°13.377 2°51.21 -999 -999 -999 -999 -999
2009-01-21 09:31:29 51°13.378 2°51.213 -999 -999 -999 -999 -999
2009-01-21 09:31:34 51°13.38 2°51.217 -999 -999 -999 -999 -999
2009-01-21 09:31:39 51°13.381 2°51.221 -999 -999 -999 -999 -999
2009-01-21 09:31:44 51°13.382 2°51.224 -999 -999 -999 -999 -999
2009-01-21 09:31:49 51°13.384 2°51.227 -999 -999 -999 -999 -999
2009-01-21 09:31:54 51°13.385 2°51.231 -999 -999 -999 -999 -999
2009-01-21 09:31:59 51°13.386 2°51.234 -999 -999 -999 -999 -999
2009-01-21 09:32:04 51°13.388 2°51.237 -999 -999 -999 -999 -999
2009-01-21 09:32:09 51°13.389 2°51.241 -999 -999 -999 -999 -999
2009-01-21 09:32:15 51°13.39 2°51.245 -999 -999 -999 -999 -999
2009-01-21 09:32:19 51°13.392 2°51.248 -999 -999 -999 -999 -999
2009-01-21 09:32:24 51°13.393 2°51.251 -999 -999 -999 -999 -999
2009-01-21 09:32:29 51°13.394 2°51.254 -999 -999 -999 -999 -999
2009-01-21 09:32:34 51°13.395 2°51.257 -999 -999 -999 -999 -999
2009-01-21 09:32:39 51°13.396 2°51.26 -999 -999 -999 -999 -999
2009-01-21 09:32:44 51°13.398 2°51.264 -999 -999 -999 -999 -999
2009-01-21 09:32:49 51°13.399 2°51.267 -999 -999 -999 -999 -999
2009-01-21 09:32:54 51°13.4 2°51.27 -999 -999 -999 -999 -999
2009-01-21 09:32:59 51°13.401 2°51.273 -999 -999 -999 -999 -999
2009-01-21 09:33:04 51°13.402 2°51.276 -999 -999 -999 -999 -999
2009-01-21 09:33:09 51°13.403 2°51.279 -999 -999 -999 -999 -999
2009-01-21 09:33:14 51°13.404 2°51.282 -999 -999 -999 -999 -999
2009-01-21 09:33:19 51°13.406 2°51.285 -999 -999 -999 -999 -999
2009-01-21 09:33:24 51°13.407 2°51.288 -999 -999 -999 -999 -999
2009-01-21 09:33:29 51°13.408 2°51.291 -999 -999 -999 -999 -999
2009-01-21 09:33:34 51°13.409 2°51.294 -999 -999 -999 -999 -999
2009-01-21 09:33:39 51°13.411 2°51.297 -999 -999 -999 -999 -999
2009-01-21 09:33:44 51°13.412 2°51.3 -999 -999 -999 -999 -999
2009-01-21 09:33:49 51°13.413 2°51.304 -999 -999 -999 -999 -999
2009-01-21 09:33:54 51°13.414 2°51.307 -999 -999 -999 -999 -999
2009-01-21 09:33:59 51°13.415 2°51.311 -999 -999 -999 -999 -999
2009-01-21 09:34:04 51°13.416 2°51.314 -999 -999 -999 -999 -999
2009-01-21 09:34:09 51°13.417 2°51.318 -999 -999 -999 -999 -999
2009-01-21 09:34:15 51°13.418 2°51.323 -999 -999 -999 -999 -999
2009-01-21 09:34:19 51°13.419 2°51.326 -999 -999 -999 -999 -999
2009-01-21 09:34:24 51°13.42 2°51.33 -999 -999 -999 -999 -999
2009-01-21 09:34:29 51°13.421 2°51.334 -999 -999 -999 -999 -999
2009-01-21 09:34:35 51°13.423 2°51.34 -999 -999 -999 -999 -999
2009-01-21 09:34:39 51°13.423 2°51.345 -999 -999 -999 -999 -999
2009-01-21 09:34:44 51°13.424 2°51.351 -999 -999 -999 -999 -999
2009-01-21 09:34:49 51°13.425 2°51.358 -999 -999 -999 -999 -999
2009-01-21 09:34:54 51°13.426 2°51.366 -999 -999 -999 -999 -999
2009-01-21 09:34:59 51°13.426 2°51.373 -999 -999 -999 -999 -999
2009-01-21 09:35:04 51°13.427 2°51.382 -999 -999 -999 -999 -999
2009-01-21 09:35:09 51°13.427 2°51.39 -999 -999 -999 -999 -999
2009-01-21 09:35:14 51°13.428 2°51.4 -999 -999 -999 -999 -999
2009-01-21 09:35:19 51°13.428 2°51.409 -999 -999 -999 -999 -999
2009-01-21 09:35:24 51°13.429 2°51.419 -999 -999 -999 -999 -999
2009-01-21 09:35:29 51°13.43 2°51.429 -999 -999 -999 -999 -999
2009-01-21 09:35:34 51°13.431 2°51.44 -999 -999 -999 -999 -999
2009-01-21 09:35:39 51°13.432 2°51.45 -999 -999 -999 -999 -999
2009-01-21 09:35:44 51°13.433 2°51.461 -999 -999 -999 -999 -999
2009-01-21 09:35:49 51°13.434 2°51.472 -999 -999 -999 -999 -999
2009-01-21 09:35:54 51°13.435 2°51.483 -999 -999 -999 -999 -999
2009-01-21 09:35:59 51°13.436 2°51.495 -999 -999 -999 -999 -999
2009-01-21 09:36:04 51°13.437 2°51.506 -999 -999 -999 -999 -999
2009-01-21 09:36:09 51°13.438 2°51.518 -999 -999 -999 -999 -999
2009-01-21 09:36:14 51°13.439 2°51.529 -999 -999 -999 -999 -999
2009-01-21 09:36:19 51°13.44 2°51.54 -999 -999 -999 -999 -999
2009-01-21 09:36:24 51°13.441 2°51.552 -999 -999 -999 -999 -999
2009-01-21 09:36:29 51°13.442 2°51.562 -999 -999 -999 -999 -999
2009-01-21 09:36:35 51°13.444 2°51.575 -999 -999 -999 -999 -999
2009-01-21 09:36:39 51°13.444 2°51.583 -999 -999 -999 -999 -999
2009-01-21 09:36:44 51°13.446 2°51.593 -999 -999 -999 -999 -999
2009-01-21 09:36:49 51°13.447 2°51.603 -999 -999 -999 -999 -999
2009-01-21 09:36:54 51°13.449 2°51.613 -999 -999 -999 -999 -999
2009-01-21 09:36:59 51°13.45 2°51.623 -999 -999 -999 -999 -999
2009-01-21 09:37:04 51°13.452 2°51.632 -999 -999 -999 -999 -999
2009-01-21 09:37:09 51°13.454 2°51.641 -999 -999 -999 -999 -999
2009-01-21 09:37:15 51°13.456 2°51.652 -999 -999 -999 -999 -999
2009-01-21 09:37:19 51°13.458 2°51.659 -999 -999 -999 -999 -999
2009-01-21 09:37:24 51°13.46 2°51.668 -999 -999 -999 -999 -999
2009-01-21 09:37:29 51°13.462 2°51.676 -999 -999 -999 -999 -999
2009-01-21 09:37:34 51°13.464 2°51.685 -999 -999 -999 -999 -999
2009-01-21 09:37:39 51°13.466 2°51.693 -999 -999 -999 -999 -999
2009-01-21 09:37:44 51°13.469 2°51.701 -999 -999 -999 -999 -999
2009-01-21 09:37:49 51°13.471 2°51.709 -999 -999 -999 -999 -999
2009-01-21 09:37:54 51°13.474 2°51.717 -999 -999 -999 -999 -999
2009-01-21 09:37:59 51°13.476 2°51.725 -999 -999 -999 -999 -999
2009-01-21 09:38:04 51°13.479 2°51.733 -999 -999 -999 -999 -999
2009-01-21 09:38:09 51°13.482 2°51.741 -999 -999 -999 -999 -999
2009-01-21 09:38:14 51°13.484 2°51.749 -999 -999 -999 -999 -999
2009-01-21 09:38:19 51°13.487 2°51.756 -999 -999 -999 -999 -999
2009-01-21 09:38:24 51°13.489 2°51.764 -999 -999 -999 -999 -999
2009-01-21 09:38:29 51°13.492 2°51.772 -999 -999 -999 -999 -999
2009-01-21 09:38:35 51°13.494 2°51.781 -999 -999 -999 -999 -999
2009-01-21 09:38:39 51°13.496 2°51.787 -999 -999 -999 -999 -999
2009-01-21 09:38:44 51°13.499 2°51.795 -999 -999 -999 -999 -999
2009-01-21 09:38:49 51°13.501 2°51.802 -999 -999 -999 -999 -999
2009-01-21 09:38:54 51°13.503 2°51.81 -999 -999 -999 -999 -999
2009-01-21 09:38:59 51°13.506 2°51.817 -999 -999 -999 -999 -999
2009-01-21 09:39:04 51°13.508 2°51.825 -999 -999 -999 -999 -999
2009-01-21 09:39:09 51°13.51 2°51.832 -999 -999 -999 -999 -999
2009-01-21 09:39:15 51°13.513 2°51.841 -999 -999 -999 -999 -999
2009-01-21 09:39:19 51°13.515 2°51.847 -999 -999 -999 -999 -999
2009-01-21 09:39:24 51°13.517 2°51.855 -999 -999 -999 -999 -999
2009-01-21 09:39:29 51°13.519 2°51.862 -999 -999 -999 -999 -999
2009-01-21 09:39:35 51°13.522 2°51.871 -999 -999 -999 -999 -999
2009-01-21 09:39:39 51°13.524 2°51.877 -999 -999 -999 -999 -999
2009-01-21 09:39:44 51°13.527 2°51.884 -999 -999 -999 -999 -999
2009-01-21 09:39:49 51°13.529 2°51.891 -999 -999 -999 -999 -999
2009-01-21 09:39:54 51°13.531 2°51.899 -999 -999 -999 -999 -999
2009-01-21 09:39:59 51°13.534 2°51.906 -999 -999 -999 -999 -999
2009-01-21 09:40:04 51°13.536 2°51.913 -999 -999 -999 -999 -999
2009-01-21 09:40:09 51°13.539 2°51.92 -999 -999 -999 -999 -999
2009-01-21 09:40:14 51°13.541 2°51.927 -999 -999 -999 -999 -999
2009-01-21 09:40:19 51°13.544 2°51.935 -999 -999 -999 -999 -999
2009-01-21 09:40:24 51°13.546 2°51.942 -999 -999 -999 -999 -999
2009-01-21 09:40:29 51°13.549 2°51.949 -999 -999 -999 -999 -999
2009-01-21 09:40:34 51°13.551 2°51.956 -999 -999 -999 -999 -999
2009-01-21 09:40:39 51°13.554 2°51.963 -999 -999 -999 -999 -999
2009-01-21 09:40:44 51°13.557 2°51.97 -999 -999 -999 -999 -999
2009-01-21 09:40:49 51°13.559 2°51.977 -999 -999 -999 -999 -999
2009-01-21 09:40:54 51°13.562 2°51.983 -999 -999 -999 -999 -999
2009-01-21 09:40:59 51°13.565 2°51.99 -999 -999 -999 -999 -999
2009-01-21 09:41:04 51°13.567 2°51.997 -999 -999 -999 -999 -999
2009-01-21 09:41:09 51°13.57 2°52.003 -999 -999 -999 -999 -999
2009-01-21 09:41:14 51°13.573 2°52.01 -999 -999 -999 -999 -999
2009-01-21 09:41:19 51°13.575 2°52.016 -999 -999 -999 -999 -999
2009-01-21 09:41:24 51°13.578 2°52.022 -999 -999 -999 -999 -999
2009-01-21 09:41:29 51°13.58 2°52.028 -999 -999 -999 -999 -999
2009-01-21 09:41:35 51°13.583 2°52.035 -999 -999 -999 -999 -999
2009-01-21 09:41:39 51°13.585 2°52.04 -999 -999 -999 -999 -999
2009-01-21 09:41:44 51°13.588 2°52.046 -999 -999 -999 -999 -999
2009-01-21 09:41:49 51°13.59 2°52.051 -999 -999 -999 -999 -999
2009-01-21 09:41:54 51°13.593 2°52.057 -999 -999 -999 -999 -999
2009-01-21 09:41:59 51°13.595 2°52.062 -999 -999 -999 -999 -999
2009-01-21 09:42:04 51°13.598 2°52.068 -999 -999 -999 -999 -999
2009-01-21 09:42:09 51°13.6 2°52.074 -999 -999 -999 -999 -999
2009-01-21 09:42:14 51°13.602 2°52.079 -999 -999 -999 -999 -999
2009-01-21 09:42:19 51°13.605 2°52.084 -999 -999 -999 -999 -999
2009-01-21 09:42:24 51°13.607 2°52.089 -999 -999 -999 -999 -999
2009-01-21 09:42:29 51°13.609 2°52.095 -999 -999 -999 -999 -999